Time,TemperatureF,DewpointF,PressureIn,WindDirection,WindDirectionDegrees,WindSpeedMPH,WindSpeedGustMPH,Humidity,HourlyPrecipIn,Conditions,Clouds,dailyrainin,SoftwareType,DateUTC
2013-01-12 00:00:00,52.5,48.1,29.57,South,190,14.0,26.0,85,0.00,,OVC180,0.00,VWS V14.01,2013-01-12 06:00:00,
2013-01-12 00:05:00,52.4,48.0,29.56,SSW,209,23.0,23.0,85,0.00,,OVC180,0.00,VWS V14.01,2013-01-12 06:05:00,
2013-01-12 00:10:00,52.5,47.8,29.56,South,191,8.0,22.0,84,0.00,,OVC180,0.00,VWS V14.01,2013-01-12 06:10:00,
2013-01-12 00:15:00,52.5,47.8,29.57,South,188,26.0,26.0,84,0.00,,OVC180,0.00,VWS V14.01,2013-01-12 06:15:00,
2013-01-12 00:20:00,52.5,47.8,29.57,North,360,18.0,22.0,84,0.00,,OVC180,0.00,VWS V14.01,2013-01-12 06:20:00,
2013-01-12 00:25:00,52.4,47.7,29.57,SSW,192,12.0,21.0,84,0.00,,OVC180,0.00,VWS V14.01,2013-01-12 06:25:00,
2013-01-12 00:30:00,52.4,47.7,29.58,SSW,196,10.0,19.0,84,0.00,,OVC180,0.00,VWS V14.01,2013-01-12 06:30:00,
2013-01-12 00:35:00,52.4,47.7,29.57,South,178,18.0,20.0,84,0.00,,OVC180,0.00,VWS V14.01,2013-01-12 06:35:00,
2013-01-12 00:40:00,52.5,47.8,29.57,SSW,202,15.0,23.0,84,0.00,,OVC180,0.00,VWS V14.01,2013-01-12 06:40:00,
2013-01-12 00:45:00,52.4,47.7,29.57,South,172,12.0,24.0,84,0.00,,OVC180,0.00,VWS V14.01,2013-01-12 06:45:00,
2013-01-12 00:50:00,52.5,47.8,29.58,South,180,15.0,22.0,84,0.00,,OVC180,0.00,VWS V14.01,2013-01-12 06:50:00,
2013-01-12 00:55:00,52.5,47.8,29.58,South,182,12.0,23.0,84,0.00,,OVC180,0.00,VWS V14.01,2013-01-12 06:55:00,
2013-01-12 01:00:00,52.6,47.6,29.58,SSW,199,15.0,21.0,83,0.00,,OVC180,0.00,VWS V14.01,2013-01-12 07:00:00,
2013-01-12 01:05:00,52.5,47.5,29.58,South,178,8.0,17.0,83,0.00,,OVC180,0.00,VWS V14.01,2013-01-12 07:05:00,
2013-01-12 01:10:00,52.5,47.5,29.58,South,182,10.0,21.0,83,0.00,,OVC180,0.00,VWS V14.01,2013-01-12 07:10:00,
2013-01-12 01:15:00,52.5,47.5,29.58,North,360,16.0,21.0,83,0.00,,FEW120,0.00,VWS V14.01,2013-01-12 07:15:00,
2013-01-12 01:16:00,52.6,47.6,29.58,SSE,165,12.0,21.0,83,0.00,,OVC180,0.00,VWS V14.01,2013-01-12 07:16:00,
2013-01-12 01:20:00,52.6,47.6,29.58,SSW,200,7.0,20.0,83,0.00,,FEW120,0.00,VWS V14.01,2013-01-12 07:20:00,
2013-01-12 01:21:00,52.6,47.6,29.58,South,174,10.0,20.0,83,0.00,,OVC180,0.00,VWS V14.01,2013-01-12 07:21:00,
2013-01-12 01:25:00,52.6,47.6,29.58,SSW,202,16.0,24.0,83,0.00,,FEW120,0.00,VWS V14.01,2013-01-12 07:25:00,
2013-01-12 01:26:00,52.5,47.5,29.58,SSE,161,10.0,21.0,83,0.00,,OVC180,0.00,VWS V14.01,2013-01-12 07:26:00,
2013-01-12 01:30:00,52.4,47.4,29.58,SSW,210,13.0,17.0,83,0.00,,FEW120,0.00,VWS V14.01,2013-01-12 07:30:00,
2013-01-12 01:31:00,52.4,47.4,29.58,South,184,15.0,17.0,83,0.00,,OVC180,0.00,VWS V14.01,2013-01-12 07:31:00,
2013-01-12 01:35:00,52.6,47.6,29.58,South,190,10.0,23.0,83,0.00,,FEW120,0.00,VWS V14.01,2013-01-12 07:35:00,
2013-01-12 01:36:00,52.5,47.5,29.58,SSW,196,13.0,24.0,83,0.00,,OVC180,0.00,VWS V14.01,2013-01-12 07:36:00,
2013-01-12 01:40:00,52.5,47.5,29.59,South,183,14.0,24.0,83,0.00,,FEW120,0.00,VWS V14.01,2013-01-12 07:40:00,
2013-01-12 01:41:00,52.5,47.5,29.59,South,169,10.0,18.0,83,0.00,,OVC180,0.00,VWS V14.01,2013-01-12 07:41:00,
2013-01-12 01:45:00,52.5,47.5,29.59,SSW,207,16.0,22.0,83,0.00,,FEW120,0.00,VWS V14.01,2013-01-12 07:45:00,
2013-01-12 01:46:00,52.6,47.6,29.59,SSW,209,18.0,24.0,83,0.00,,OVC180,0.00,VWS V14.01,2013-01-12 07:46:00,
2013-01-12 01:50:00,52.6,47.6,29.59,SSW,192,14.0,24.0,83,0.00,,FEW120,0.00,VWS V14.01,2013-01-12 07:50:00,
2013-01-12 01:51:00,52.6,47.6,29.59,South,174,13.0,20.0,83,0.00,,OVC180,0.00,VWS V14.01,2013-01-12 07:51:00,
2013-01-12 01:55:00,52.6,47.6,29.59,South,187,6.0,31.0,83,0.00,,FEW120,0.00,VWS V14.01,2013-01-12 07:55:00,
2013-01-12 01:56:00,52.5,47.5,29.59,South,170,3.0,31.0,83,0.00,,OVC180,0.00,VWS V14.01,2013-01-12 07:56:00,
2013-01-12 02:00:00,52.3,47.3,29.59,South,179,8.0,14.0,83,0.00,,FEW120,0.00,VWS V14.01,2013-01-12 08:00:00,
2013-01-12 02:01:00,52.3,47.3,29.59,North,360,9.0,20.0,83,0.00,,OVC200,0.00,VWS V14.01,2013-01-12 08:01:00,
2013-01-12 02:05:00,52.4,47.4,29.59,SW,219,10.0,18.0,83,0.00,,FEW120,0.00,VWS V14.01,2013-01-12 08:05:00,
2013-01-12 02:06:00,52.4,47.4,29.59,SSW,197,17.0,19.0,83,0.00,,OVC200,0.00,VWS V14.01,2013-01-12 08:06:00,
2013-01-12 02:10:00,52.5,47.5,29.59,South,188,18.0,20.0,83,0.00,,FEW120,0.00,VWS V14.01,2013-01-12 08:10:00,
2013-01-12 02:11:00,52.6,47.6,29.59,SSE,165,7.0,19.0,83,0.00,,OVC200,0.00,VWS V14.01,2013-01-12 08:11:00,
2013-01-12 02:15:00,52.6,47.3,29.59,SSW,205,9.0,18.0,82,0.00,,FEW120,0.00,VWS V14.01,2013-01-12 08:15:00,
2013-01-12 02:16:00,52.5,47.5,29.59,SSE,163,11.0,18.0,83,0.00,,OVC200,0.00,VWS V14.01,2013-01-12 08:16:00,
2013-01-12 02:20:00,52.5,47.5,29.60,SSW,207,8.0,22.0,83,0.00,,FEW120,0.00,VWS V14.01,2013-01-12 08:20:00,
2013-01-12 02:21:00,52.6,47.3,29.60,SSE,160,16.0,22.0,82,0.00,,OVC200,0.00,VWS V14.01,2013-01-12 08:21:00,
2013-01-12 02:25:00,52.7,47.4,29.60,SSE,166,10.0,21.0,82,0.00,,FEW120,0.00,VWS V14.01,2013-01-12 08:25:00,
2013-01-12 02:26:00,52.6,47.3,29.60,SSW,192,16.0,21.0,82,0.00,,OVC200,0.00,VWS V14.01,2013-01-12 08:26:00,
2013-01-12 02:30:00,52.7,47.4,29.60,South,182,11.0,20.0,82,0.00,,FEW120,0.00,VWS V14.01,2013-01-12 08:30:00,
2013-01-12 02:31:00,52.8,47.5,29.60,South,175,13.0,30.0,82,0.00,,OVC200,0.00,VWS V14.01,2013-01-12 08:31:00,
2013-01-12 02:35:00,52.8,47.5,29.60,South,173,4.0,24.0,82,0.00,,FEW120,0.00,VWS V14.01,2013-01-12 08:35:00,
2013-01-12 02:36:00,52.7,47.4,29.60,SSW,205,13.0,24.0,82,0.00,,OVC200,0.00,VWS V14.01,2013-01-12 08:36:00,
2013-01-12 02:40:00,52.7,47.4,29.60,North,360,15.0,23.0,82,0.00,,FEW120,0.00,VWS V14.01,2013-01-12 08:40:00,
2013-01-12 02:41:00,52.6,47.3,29.60,SSW,205,14.0,23.0,82,0.00,,OVC200,0.00,VWS V14.01,2013-01-12 08:41:00,
2013-01-12 02:45:00,52.6,47.3,29.59,SSW,199,12.0,22.0,82,0.00,,FEW120,0.00,VWS V14.01,2013-01-12 08:45:00,
2013-01-12 02:46:00,52.6,47.3,29.59,South,186,18.0,22.0,82,0.00,,OVC200,0.00,VWS V14.01,2013-01-12 08:46:00,
2013-01-12 02:50:00,52.7,47.4,29.59,South,171,19.0,23.0,82,0.00,,FEW120,0.00,VWS V14.01,2013-01-12 08:50:00,
2013-01-12 02:51:00,52.7,47.4,29.59,SSW,212,9.0,23.0,82,0.00,,OVC200,0.00,VWS V14.01,2013-01-12 08:51:00,
2013-01-12 02:55:00,52.7,47.4,29.59,South,188,13.0,23.0,82,0.00,,FEW120,0.00,VWS V14.01,2013-01-12 08:55:00,
2013-01-12 02:57:00,52.6,47.3,29.59,South,175,10.0,23.0,82,0.00,,OVC200,0.00,VWS V14.01,2013-01-12 08:57:00,
2013-01-12 03:00:00,52.5,47.2,29.59,WSW,246,14.0,21.0,82,0.00,,FEW120,0.00,VWS V14.01,2013-01-12 09:00:00,
2013-01-12 03:02:00,52.5,47.2,29.59,North,360,24.0,24.0,82,0.00,,BKN200,0.00,VWS V14.01,2013-01-12 09:02:00,
2013-01-12 03:05:00,52.5,47.2,29.59,SSE,168,9.0,25.0,82,0.00,,FEW120,0.00,VWS V14.01,2013-01-12 09:05:00,
2013-01-12 03:07:00,52.5,47.2,29.59,South,174,11.0,18.0,82,0.00,,BKN200,0.00,VWS V14.01,2013-01-12 09:07:00,
2013-01-12 03:10:00,52.6,47.3,29.59,SSW,201,9.0,21.0,82,0.00,,FEW120,0.00,VWS V14.01,2013-01-12 09:10:00,
2013-01-12 03:12:00,52.5,47.2,29.59,SSE,168,14.0,21.0,82,0.00,,BKN200,0.00,VWS V14.01,2013-01-12 09:12:00,
2013-01-12 03:15:00,52.5,47.2,29.58,SSW,203,12.0,17.0,82,0.00,,FEW120,0.00,VWS V14.01,2013-01-12 09:15:00,
2013-01-12 03:17:00,52.5,47.2,29.58,SSW,211,9.0,22.0,82,0.00,,BKN200,0.00,VWS V14.01,2013-01-12 09:17:00,
2013-01-12 03:20:00,52.6,47.3,29.58,South,179,12.0,23.0,82,0.00,,FEW120,0.00,VWS V14.01,2013-01-12 09:20:00,
2013-01-12 03:22:00,52.7,47.4,29.58,SSW,200,18.0,23.0,82,0.00,,BKN200,0.00,VWS V14.01,2013-01-12 09:22:00,
2013-01-12 03:25:00,53.1,47.1,29.58,North,360,17.0,19.0,80,0.00,,FEW070,0.00,VWS V14.01,2013-01-12 09:25:00,
2013-01-12 03:27:00,52.8,47.1,29.58,SW,229,15.0,21.0,81,0.00,,BKN200,0.00,VWS V14.01,2013-01-12 09:27:00,
2013-01-12 03:30:00,52.8,47.1,29.58,SSE,166,12.0,21.0,81,0.00,,FEW120,0.00,VWS V14.01,2013-01-12 09:30:00,
2013-01-12 03:32:00,52.7,47.0,29.58,SSW,196,10.0,19.0,81,0.00,,BKN200,0.00,VWS V14.01,2013-01-12 09:32:00,
2013-01-12 03:35:00,52.8,47.5,29.58,SSW,194,20.0,22.0,82,0.00,,,0.00,VWS V14.01,2013-01-12 09:35:00,
2013-01-12 03:37:00,53.0,47.3,29.58,SSW,198,9.0,22.0,81,0.00,,BKN200,0.00,VWS V14.01,2013-01-12 09:37:00,
2013-01-12 03:40:00,52.9,47.2,29.58,SSW,194,12.0,18.0,81,0.00,,FEW120,0.00,VWS V14.01,2013-01-12 09:40:00,
2013-01-12 03:42:00,52.9,47.2,29.58,South,175,17.0,21.0,81,0.00,,BKN200,0.00,VWS V14.01,2013-01-12 09:42:00,
2013-01-12 03:45:00,52.9,47.2,29.58,SSW,200,14.0,21.0,81,0.00,,,0.00,VWS V14.01,2013-01-12 09:45:00,
2013-01-12 03:47:00,52.9,47.2,29.58,SSW,213,8.0,20.0,81,0.00,,BKN200,0.00,VWS V14.01,2013-01-12 09:47:00,
2013-01-12 03:50:00,52.8,47.1,29.58,South,178,9.0,19.0,81,0.00,,FEW120,0.00,VWS V14.01,2013-01-12 09:50:00,
2013-01-12 03:52:00,52.8,47.1,29.58,South,173,3.0,20.0,81,0.00,,BKN200,0.00,VWS V14.01,2013-01-12 09:52:00,
2013-01-12 03:55:00,52.8,47.1,29.58,South,171,7.0,20.0,81,0.00,,,0.00,VWS V14.01,2013-01-12 09:55:00,
2013-01-12 03:57:00,52.8,47.1,29.58,South,180,7.0,19.0,81,0.00,,BKN200,0.00,VWS V14.01,2013-01-12 09:57:00,
2013-01-12 04:00:00,52.9,47.2,29.59,SSW,192,9.0,19.0,81,0.00,,,0.00,VWS V14.01,2013-01-12 10:00:00,
2013-01-12 04:02:00,52.9,47.2,29.59,SSW,194,13.0,23.0,81,0.00,,OVC200,0.00,VWS V14.01,2013-01-12 10:02:00,
2013-01-12 04:05:00,52.9,47.2,29.59,South,176,12.0,17.0,81,0.00,,,0.00,VWS V14.01,2013-01-12 10:05:00,
2013-01-12 04:07:00,52.9,47.2,29.58,SSW,200,10.0,21.0,81,0.00,,OVC200,0.00,VWS V14.01,2013-01-12 10:07:00,
2013-01-12 04:10:00,52.9,47.2,29.58,SSW,202,17.0,21.0,81,0.00,,,0.00,VWS V14.01,2013-01-12 10:10:00,
2013-01-12 04:12:00,53.0,47.3,29.58,WSW,255,18.0,24.0,81,0.00,,OVC200,0.00,VWS V14.01,2013-01-12 10:12:00,
2013-01-12 04:15:00,53.0,47.3,29.58,North,360,15.0,24.0,81,0.00,,,0.00,VWS V14.01,2013-01-12 10:15:00,
2013-01-12 04:18:00,53.1,47.1,29.58,South,191,18.0,22.0,80,0.00,,OVC200,0.00,VWS V14.01,2013-01-12 10:18:00,
2013-01-12 04:20:00,53.1,47.1,29.58,ESE,108,15.0,22.0,80,0.00,,FEW120,0.00,VWS V14.01,2013-01-12 10:20:00,
2013-01-12 04:23:00,53.2,47.2,29.58,North,360,10.0,18.0,80,0.00,,OVC200,0.00,VWS V14.01,2013-01-12 10:23:00,
2013-01-12 04:25:00,53.1,47.1,29.58,North,360,17.0,19.0,80,0.00,,,0.00,VWS V14.01,2013-01-12 10:25:00,
2013-01-12 04:28:00,53.3,47.3,29.58,SSE,154,13.0,22.0,80,0.00,,OVC200,0.00,VWS V14.01,2013-01-12 10:28:00,
2013-01-12 04:30:00,53.4,47.4,29.58,North,360,8.0,31.0,80,0.00,,,0.00,VWS V14.01,2013-01-12 10:30:00,
2013-01-12 04:33:00,53.4,47.1,29.58,SSW,195,6.0,23.0,79,0.00,,OVC200,0.00,VWS V14.01,2013-01-12 10:33:00,
2013-01-12 04:35:00,53.3,47.3,29.58,SW,223,13.0,18.0,80,0.00,,,0.00,VWS V14.01,2013-01-12 10:35:00,
2013-01-12 04:38:00,53.4,47.1,29.58,SSW,207,17.0,24.0,79,0.00,,OVC200,0.00,VWS V14.01,2013-01-12 10:38:00,
2013-01-12 04:40:00,53.5,47.2,29.58,South,184,15.0,24.0,79,0.00,,,0.00,VWS V14.01,2013-01-12 10:40:00,
2013-01-12 04:43:00,53.6,47.3,29.58,South,173,16.0,28.0,79,0.00,,OVC200,0.00,VWS V14.01,2013-01-12 10:43:00,
2013-01-12 04:45:00,53.6,47.3,29.58,SSE,167,11.0,25.0,79,0.00,,,0.00,VWS V14.01,2013-01-12 10:45:00,
2013-01-12 04:48:00,53.4,47.1,29.58,SSW,196,14.0,21.0,79,0.00,,OVC200,0.00,VWS V14.01,2013-01-12 10:48:00,
2013-01-12 04:50:00,53.5,47.2,29.58,SSE,167,20.0,25.0,79,0.00,,,0.00,VWS V14.01,2013-01-12 10:50:00,
2013-01-12 04:53:00,53.6,47.3,29.58,SSE,156,12.0,27.0,79,0.00,,OVC200,0.00,VWS V14.01,2013-01-12 10:53:00,
2013-01-12 04:55:00,53.6,47.3,29.58,SW,219,24.0,27.0,79,0.00,,,0.00,VWS V14.01,2013-01-12 10:55:00,
2013-01-12 04:58:00,53.5,47.2,29.58,SSE,160,26.0,26.0,79,0.00,,OVC200,0.00,VWS V14.01,2013-01-12 10:58:00,
2013-01-12 05:00:00,53.6,47.3,29.58,South,186,15.0,26.0,79,0.00,,,0.00,VWS V14.01,2013-01-12 11:00:00,
2013-01-12 05:03:00,53.5,47.2,29.58,WSW,240,20.0,25.0,79,0.00,,OVC180,0.00,VWS V14.01,2013-01-12 11:03:00,
2013-01-12 05:05:00,53.5,47.2,29.58,SSW,207,17.0,21.0,79,0.00,,FEW120,0.00,VWS V14.01,2013-01-12 11:05:00,
2013-01-12 05:08:00,53.6,47.3,29.58,SSW,199,16.0,23.0,79,0.00,,OVC180,0.00,VWS V14.01,2013-01-12 11:08:00,
2013-01-12 05:10:00,53.7,47.3,29.58,North,360,7.0,23.0,79,0.00,,,0.00,VWS V14.01,2013-01-12 11:10:00,
2013-01-12 05:13:00,53.6,47.3,29.58,SSW,194,13.0,24.0,79,0.00,,OVC180,0.00,VWS V14.01,2013-01-12 11:13:00,
2013-01-12 05:15:00,53.6,47.3,29.58,WSW,242,18.0,24.0,79,0.00,,,0.00,VWS V14.01,2013-01-12 11:15:00,
2013-01-12 05:18:00,53.6,47.3,29.59,SSW,202,12.0,25.0,79,0.00,,OVC180,0.00,VWS V14.01,2013-01-12 11:18:00,
2013-01-12 05:20:00,53.6,47.3,29.58,North,360,8.0,25.0,79,0.00,,,0.00,VWS V14.01,2013-01-12 11:20:00,
2013-01-12 05:23:00,53.7,47.0,29.58,SSW,213,6.0,31.0,78,0.00,,OVC180,0.00,VWS V14.01,2013-01-12 11:23:00,
2013-01-12 05:25:00,53.7,47.0,29.58,SSE,161,14.0,31.0,78,0.00,,,0.00,VWS V14.01,2013-01-12 11:25:00,
2013-01-12 05:28:00,53.7,47.0,29.58,SSW,192,16.0,28.0,78,0.00,,OVC180,0.00,VWS V14.01,2013-01-12 11:28:00,
2013-01-12 05:30:00,53.8,47.1,29.58,SSW,193,20.0,28.0,78,0.00,,,0.00,VWS V14.01,2013-01-12 11:30:00,
2013-01-12 05:33:00,53.9,46.9,29.58,South,182,18.0,26.0,77,0.00,,OVC180,0.00,VWS V14.01,2013-01-12 11:33:00,
2013-01-12 05:35:00,54.0,47.0,29.58,SSE,161,17.0,26.0,77,0.00,,,0.00,VWS V14.01,2013-01-12 11:35:00,
2013-01-12 05:38:00,54.2,46.8,29.58,WSW,251,9.0,35.0,76,0.00,,OVC180,0.00,VWS V14.01,2013-01-12 11:38:00,
2013-01-12 05:40:00,54.1,46.7,29.58,SSE,167,7.0,35.0,76,0.00,,,0.00,VWS V14.01,2013-01-12 11:40:00,
2013-01-12 05:44:00,54.0,46.6,29.58,South,190,8.0,30.0,76,0.00,,OVC180,0.00,VWS V14.01,2013-01-12 11:44:00,
2013-01-12 05:45:00,54.0,46.6,29.58,SSW,198,18.0,30.0,76,0.00,,,0.00,VWS V14.01,2013-01-12 11:45:00,
2013-01-12 05:49:00,54.1,46.7,29.58,SW,230,17.0,30.0,76,0.00,,OVC180,0.00,VWS V14.01,2013-01-12 11:49:00,
2013-01-12 05:50:00,54.1,47.1,29.58,SW,219,17.0,30.0,77,0.00,,,0.00,VWS V14.01,2013-01-12 11:50:00,
2013-01-12 05:54:00,54.1,46.7,29.58,North,360,28.0,36.0,76,0.00,,OVC180,0.00,VWS V14.01,2013-01-12 11:54:00,
2013-01-12 05:55:00,54.1,46.7,29.59,SSW,204,7.0,36.0,76,0.00,,FEW120,0.00,VWS V14.01,2013-01-12 11:55:00,
2013-01-12 05:59:00,54.1,46.7,29.58,SSW,202,19.0,32.0,76,0.00,,OVC180,0.00,VWS V14.01,2013-01-12 11:59:00,
2013-01-12 06:00:00,54.0,46.6,29.58,SSW,200,16.0,32.0,76,0.00,,,0.00,VWS V14.01,2013-01-12 12:00:00,
2013-01-12 06:04:00,53.9,46.9,29.58,SSW,192,21.0,24.0,77,0.00,,BKN180,0.00,VWS V14.01,2013-01-12 12:04:00,
2013-01-12 06:05:00,53.9,46.9,29.58,South,189,17.0,24.0,77,0.00,,,0.00,VWS V14.01,2013-01-12 12:05:00,
2013-01-12 06:09:00,53.8,46.8,29.59,South,180,18.0,23.0,77,0.00,,BKN180,0.00,VWS V14.01,2013-01-12 12:09:00,
2013-01-12 06:10:00,53.8,46.8,29.59,North,360,7.0,23.0,77,0.00,,,0.00,VWS V14.01,2013-01-12 12:10:00,
2013-01-12 06:14:00,53.7,46.7,29.59,SSE,158,6.0,27.0,77,0.00,,BKN180,0.00,VWS V14.01,2013-01-12 12:14:00,
2013-01-12 06:15:00,53.7,46.7,29.59,SSW,202,13.0,27.0,77,0.00,,,0.00,VWS V14.01,2013-01-12 12:15:00,
2013-01-12 06:19:00,53.6,46.6,29.60,West,264,14.0,25.0,77,0.00,,BKN180,0.00,VWS V14.01,2013-01-12 12:19:00,
2013-01-12 06:20:00,53.6,46.6,29.60,SSW,199,8.0,25.0,77,0.00,,,0.00,VWS V14.01,2013-01-12 12:20:00,
2013-01-12 06:24:00,53.4,46.4,29.60,North,360,11.0,22.0,77,0.00,,BKN180,0.00,VWS V14.01,2013-01-12 12:24:00,
2013-01-12 06:25:00,53.4,46.4,29.60,North,360,18.0,23.0,77,0.00,,,0.00,VWS V14.01,2013-01-12 12:25:00,
2013-01-12 06:29:00,53.3,46.6,29.61,SSW,209,12.0,26.0,78,0.00,,BKN180,0.00,VWS V14.01,2013-01-12 12:29:00,
2013-01-12 06:30:00,53.3,46.6,29.61,South,175,12.0,26.0,78,0.00,,,0.00,VWS V14.01,2013-01-12 12:30:00,
2013-01-12 06:34:00,53.1,46.4,29.61,SSE,165,18.0,25.0,78,0.00,,BKN180,0.00,VWS V14.01,2013-01-12 12:34:00,
2013-01-12 06:35:00,53.1,46.4,29.61,SSW,194,15.0,24.0,78,0.00,,FEW120,0.00,VWS V14.01,2013-01-12 12:35:00,
2013-01-12 06:39:00,53.1,46.4,29.61,SSW,200,10.0,32.0,78,0.00,,BKN180,0.00,VWS V14.01,2013-01-12 12:39:00,
2013-01-12 06:40:00,53.0,46.3,29.61,North,360,15.0,32.0,78,0.00,,,0.00,VWS V14.01,2013-01-12 12:40:00,
2013-01-12 06:44:00,52.8,46.5,29.61,SW,225,18.0,28.0,79,0.00,,BKN180,0.00,VWS V14.01,2013-01-12 12:44:00,
2013-01-12 06:45:00,52.8,46.5,29.61,SSW,213,21.0,28.0,79,0.00,,,0.00,VWS V14.01,2013-01-12 12:45:00,
2013-01-12 06:49:00,52.7,46.4,29.62,SSW,198,5.0,25.0,79,0.00,,BKN180,0.00,VWS V14.01,2013-01-12 12:49:00,
2013-01-12 06:50:00,52.6,46.3,29.62,South,176,10.0,25.0,79,0.00,,,0.00,VWS V14.01,2013-01-12 12:50:00,
2013-01-12 06:54:00,52.4,46.1,29.62,SSW,193,20.0,22.0,79,0.00,,BKN180,0.00,VWS V14.01,2013-01-12 12:54:00,
2013-01-12 06:55:00,52.4,46.1,29.62,South,186,5.0,22.0,79,0.00,,,0.00,VWS V14.01,2013-01-12 12:55:00,
2013-01-12 06:59:00,52.3,46.0,29.62,South,186,17.0,23.0,79,0.00,,BKN180,0.00,VWS V14.01,2013-01-12 12:59:00,
2013-01-12 07:00:00,52.2,45.9,29.62,South,190,15.0,24.0,79,0.00,,,0.00,VWS V14.01,2013-01-12 13:00:00,
2013-01-12 07:04:00,52.2,45.9,29.62,SSE,156,10.0,31.0,79,0.00,,BKN250,0.00,VWS V14.01,2013-01-12 13:04:00,
2013-01-12 07:05:00,52.2,45.9,29.62,SSW,210,15.0,31.0,79,0.00,,,0.00,VWS V14.01,2013-01-12 13:05:00,
2013-01-12 07:09:00,52.0,45.7,29.62,SW,227,17.0,24.0,79,0.00,,BKN250,0.00,VWS V14.01,2013-01-12 13:09:00,
2013-01-12 07:10:00,52.0,45.7,29.62,WSW,249,10.0,24.0,79,0.00,,FEW120,0.00,VWS V14.01,2013-01-12 13:10:00,
2013-01-12 07:14:00,51.9,45.6,29.63,SW,233,20.0,23.0,79,0.00,,BKN250,0.00,VWS V14.01,2013-01-12 13:14:00,
2013-01-12 07:15:00,51.9,45.6,29.63,SW,233,20.0,23.0,79,0.00,,FEW120,0.00,VWS V14.01,2013-01-12 13:15:00,
2013-01-12 07:19:00,51.8,45.2,29.63,SW,232,14.0,20.0,78,0.00,,BKN250,0.00,VWS V14.01,2013-01-12 13:19:00,
2013-01-12 07:20:00,51.8,45.2,29.63,SW,232,14.0,20.0,78,0.00,,FEW120,0.00,VWS V14.01,2013-01-12 13:20:00,
2013-01-12 07:24:00,51.6,45.0,29.63,SW,235,14.0,19.0,78,0.00,,BKN250,0.00,VWS V14.01,2013-01-12 13:24:00,
2013-01-12 07:25:00,51.6,45.0,29.63,SW,235,14.0,19.0,78,0.00,,FEW120,0.00,VWS V14.01,2013-01-12 13:25:00,
2013-01-12 07:29:00,51.5,44.9,29.64,WSW,242,14.0,21.0,78,0.00,,BKN250,0.00,VWS V14.01,2013-01-12 13:29:00,
2013-01-12 07:30:00,51.5,44.9,29.64,WSW,242,14.0,21.0,78,0.00,,FEW120,0.00,VWS V14.01,2013-01-12 13:30:00,
2013-01-12 07:34:00,51.5,44.5,29.65,SW,235,12.0,26.0,77,0.00,,BKN250,0.00,VWS V14.01,2013-01-12 13:34:00,
2013-01-12 07:35:00,51.5,44.5,29.65,SW,235,12.0,26.0,77,0.00,,FEW120,0.00,VWS V14.01,2013-01-12 13:35:00,
2013-01-12 07:39:00,51.3,44.3,29.65,SW,232,19.0,25.0,77,0.00,,BKN250,0.00,VWS V14.01,2013-01-12 13:39:00,
2013-01-12 07:40:00,51.3,44.3,29.65,SW,232,19.0,25.0,77,0.00,,FEW120,0.00,VWS V14.01,2013-01-12 13:40:00,
2013-01-12 07:44:00,51.0,43.4,29.66,SSW,211,21.0,26.0,75,0.00,,BKN250,0.00,VWS V14.01,2013-01-12 13:44:00,
2013-01-12 07:45:00,51.0,43.4,29.66,SSW,211,21.0,26.0,75,0.00,,,0.00,VWS V14.01,2013-01-12 13:45:00,
2013-01-12 07:49:00,50.7,42.7,29.66,SW,234,14.0,29.0,74,0.00,,BKN250,0.00,VWS V14.01,2013-01-12 13:49:00,
2013-01-12 07:50:00,50.7,42.7,29.66,SW,234,14.0,29.0,74,0.00,,FEW120,0.00,VWS V14.01,2013-01-12 13:50:00,
2013-01-12 07:54:00,50.3,42.3,29.66,SW,221,13.0,26.0,74,0.00,,BKN250,0.00,VWS V14.01,2013-01-12 13:54:00,
2013-01-12 07:55:00,50.3,42.3,29.66,SW,221,13.0,26.0,74,0.00,,FEW120,0.00,VWS V14.01,2013-01-12 13:55:00,
2013-01-12 08:00:00,49.9,42.0,29.66,WSW,242,23.0,28.0,74,0.00,,BKN250,0.00,VWS V14.01,2013-01-12 14:00:00,
2013-01-12 08:05:00,49.5,41.9,29.67,South,190,15.0,27.0,75,0.00,,BKN250,0.00,VWS V14.01,2013-01-12 14:05:00,
2013-01-12 08:10:00,49.2,41.6,29.68,SW,215,20.0,25.0,75,0.00,,BKN250,0.00,VWS V14.01,2013-01-12 14:10:00,
2013-01-12 08:15:00,49.0,41.4,29.68,WNW,284,21.0,27.0,75,0.00,,BKN250,0.00,VWS V14.01,2013-01-12 14:15:00,
2013-01-12 08:20:00,48.5,40.2,29.68,SW,234,15.0,28.0,73,0.00,,BKN250,0.00,VWS V14.01,2013-01-12 14:20:00,
2013-01-12 08:25:00,48.1,39.2,29.69,SSE,158,11.0,32.0,71,0.00,,BKN250,0.00,VWS V14.01,2013-01-12 14:25:00,
2013-01-12 08:30:00,47.6,38.0,29.69,SSW,208,16.0,31.0,69,0.00,,BKN250,0.00,VWS V14.01,2013-01-12 14:30:00,
2013-01-12 08:35:00,47.0,36.6,29.70,SSE,167,7.0,27.0,67,0.00,,BKN250,0.00,VWS V14.01,2013-01-12 14:35:00,
2013-01-12 08:40:00,46.3,36.0,29.71,SSW,201,7.0,26.0,67,0.00,,BKN250,0.00,VWS V14.01,2013-01-12 14:40:00,
2013-01-12 08:45:00,46.0,35.7,29.71,WSW,240,19.0,21.0,67,0.00,,,0.00,VWS V14.01,2013-01-12 14:45:00,
2013-01-12 08:46:00,46.0,35.7,29.71,WSW,244,10.0,21.0,67,0.00,,BKN250,0.00,VWS V14.01,2013-01-12 14:46:00,
2013-01-12 08:50:00,45.4,34.0,29.72,West,267,22.0,24.0,64,0.00,,FEW120,0.00,VWS V14.01,2013-01-12 14:50:00,
2013-01-12 08:51:00,45.1,33.7,29.72,WSW,248,18.0,27.0,64,0.00,,BKN250,0.00,VWS V14.01,2013-01-12 14:51:00,
2013-01-12 08:55:00,44.4,33.4,29.72,WSW,238,12.0,30.0,65,0.00,,FEW120,0.00,VWS V14.01,2013-01-12 14:55:00,
2013-01-12 08:56:00,44.3,33.3,29.72,SW,229,23.0,30.0,65,0.00,,BKN250,0.00,VWS V14.01,2013-01-12 14:56:00,
2013-01-12 09:00:00,43.9,33.3,29.72,SSE,166,17.0,30.0,66,0.00,,FEW120,0.00,VWS V14.01,2013-01-12 15:00:00,
2013-01-12 09:01:00,43.8,33.2,29.72,North,360,28.0,28.0,66,0.00,,BKN250,0.00,VWS V14.01,2013-01-12 15:01:00,
2013-01-12 09:05:00,43.5,32.9,29.72,West,264,10.0,31.0,66,0.00,,FEW120,0.00,VWS V14.01,2013-01-12 15:05:00,
2013-01-12 09:06:00,43.4,32.8,29.72,West,269,20.0,31.0,66,0.00,,BKN250,0.00,VWS V14.01,2013-01-12 15:06:00,
2013-01-12 09:10:00,43.1,31.8,29.72,SSW,206,10.0,32.0,64,0.00,,,0.00,VWS V14.01,2013-01-12 15:10:00,
2013-01-12 09:11:00,42.9,31.6,29.72,South,189,7.0,32.0,64,0.00,,BKN250,0.00,VWS V14.01,2013-01-12 15:11:00,
2013-01-12 09:15:00,42.3,31.4,29.73,SW,234,17.0,32.0,65,0.00,,FEW120,0.00,VWS V14.01,2013-01-12 15:15:00,
2013-01-12 09:16:00,42.2,31.7,29.73,SSW,204,7.0,32.0,66,0.00,,BKN250,0.00,VWS V14.01,2013-01-12 15:16:00,
2013-01-12 09:20:00,41.8,31.3,29.73,SW,236,14.0,32.0,66,0.00,,FEW120,0.00,VWS V14.01,2013-01-12 15:20:00,
2013-01-12 09:21:00,41.7,31.6,29.73,SSE,160,10.0,32.0,67,0.00,,BKN250,0.00,VWS V14.01,2013-01-12 15:21:00,
2013-01-12 09:25:00,41.6,31.8,29.73,SW,236,13.0,25.0,68,0.00,,FEW120,0.00,VWS V14.01,2013-01-12 15:25:00,
2013-01-12 09:26:00,41.6,32.2,29.73,WSW,249,8.0,22.0,69,0.00,,BKN250,0.00,VWS V14.01,2013-01-12 15:26:00,
2013-01-12 09:30:00,41.5,31.7,29.73,North,360,18.0,24.0,68,0.00,,FEW120,0.00,VWS V14.01,2013-01-12 15:30:00,
2013-01-12 09:31:00,41.4,31.6,29.73,SW,223,10.0,23.0,68,0.00,,BKN250,0.00,VWS V14.01,2013-01-12 15:31:00,
2013-01-12 09:35:00,41.3,31.9,29.73,North,360,20.0,27.0,69,0.00,,FEW120,0.00,VWS V14.01,2013-01-12 15:35:00,
2013-01-12 09:36:00,41.3,31.9,29.73,SW,224,7.0,20.0,69,0.00,,BKN250,0.00,VWS V14.01,2013-01-12 15:36:00,
2013-01-12 09:40:00,41.2,31.8,29.73,SW,222,10.0,20.0,69,0.00,,FEW120,0.00,VWS V14.01,2013-01-12 15:40:00,
2013-01-12 09:41:00,41.2,32.2,29.73,North,360,4.0,20.0,70,0.00,,BKN250,0.00,VWS V14.01,2013-01-12 15:41:00,
2013-01-12 09:45:00,41.0,31.6,29.73,SSW,207,15.0,23.0,69,0.00,,FEW120,0.00,VWS V14.01,2013-01-12 15:45:00,
2013-01-12 09:46:00,40.9,31.5,29.73,SW,218,18.0,25.0,69,0.00,,BKN250,0.00,VWS V14.01,2013-01-12 15:46:00,
2013-01-12 09:50:00,40.8,31.4,29.74,North,360,15.0,26.0,69,0.00,,FEW120,0.00,VWS V14.01,2013-01-12 15:50:00,
2013-01-12 09:51:00,40.8,31.4,29.74,SW,221,24.0,28.0,69,0.00,,BKN250,0.00,VWS V14.01,2013-01-12 15:51:00,
2013-01-12 09:55:00,40.7,31.3,29.74,South,175,12.0,27.0,69,0.00,,FEW120,0.00,VWS V14.01,2013-01-12 15:55:00,
2013-01-12 09:56:00,40.7,31.3,29.74,SSW,195,12.0,24.0,69,0.00,,BKN250,0.00,VWS V14.01,2013-01-12 15:56:00,
2013-01-12 10:00:00,40.9,31.5,29.74,SW,222,14.0,22.0,69,0.00,,FEW120,0.00,VWS V14.01,2013-01-12 16:00:00,
2013-01-12 10:01:00,40.9,31.5,29.74,West,271,6.0,21.0,69,0.00,,BKN220,0.00,VWS V14.01,2013-01-12 16:01:00,
2013-01-12 10:05:00,41.0,31.6,29.75,SW,226,19.0,23.0,69,0.00,,FEW120,0.00,VWS V14.01,2013-01-12 16:05:00,
2013-01-12 10:06:00,41.0,31.6,29.75,SSW,213,19.0,23.0,69,0.00,,BKN220,0.00,VWS V14.01,2013-01-12 16:06:00,
2013-01-12 10:10:00,41.1,32.1,29.75,SSW,207,10.0,22.0,70,0.00,,FEW120,0.00,VWS V14.01,2013-01-12 16:10:00,
2013-01-12 10:11:00,41.1,32.1,29.75,SW,234,9.0,18.0,70,0.00,,BKN220,0.00,VWS V14.01,2013-01-12 16:11:00,
2013-01-12 10:15:00,41.3,32.6,29.75,WSW,246,10.0,17.0,71,0.00,,FEW120,0.00,VWS V14.01,2013-01-12 16:15:00,
2013-01-12 10:16:00,41.3,32.6,29.76,SSW,208,11.0,19.0,71,0.00,,BKN220,0.00,VWS V14.01,2013-01-12 16:16:00,
2013-01-12 10:20:00,41.1,32.4,29.75,SW,215,12.0,19.0,71,0.00,,FEW120,0.00,VWS V14.01,2013-01-12 16:20:00,
2013-01-12 10:21:00,40.9,32.6,29.75,South,172,10.0,19.0,72,0.00,,BKN220,0.00,VWS V14.01,2013-01-12 16:21:00,
2013-01-12 10:25:00,40.7,32.0,29.75,North,360,15.0,22.0,71,0.00,,FEW120,0.00,VWS V14.01,2013-01-12 16:25:00,
2013-01-12 10:27:00,40.5,31.9,29.75,SW,218,11.0,22.0,71,0.00,,BKN220,0.00,VWS V14.01,2013-01-12 16:27:00,
2013-01-12 10:30:00,40.3,31.7,29.75,South,171,9.0,22.0,71,0.00,,FEW120,0.00,VWS V14.01,2013-01-12 16:30:00,
2013-01-12 10:32:00,40.3,31.7,29.75,SW,233,18.0,23.0,71,0.00,,BKN220,0.00,VWS V14.01,2013-01-12 16:32:00,
2013-01-12 10:35:00,40.1,31.1,29.75,SW,234,16.0,23.0,70,0.00,,FEW120,0.00,VWS V14.01,2013-01-12 16:35:00,
2013-01-12 10:37:00,40.0,31.0,29.76,WSW,237,12.0,27.0,70,0.00,,BKN220,0.00,VWS V14.01,2013-01-12 16:37:00,
2013-01-12 10:40:00,40.0,31.0,29.76,SW,236,20.0,27.0,70,0.00,,FEW120,0.00,VWS V14.01,2013-01-12 16:40:00,
2013-01-12 10:42:00,40.0,31.4,29.77,North,360,12.0,25.0,71,0.00,,BKN220,0.00,VWS V14.01,2013-01-12 16:42:00,
2013-01-12 10:45:00,39.9,30.9,29.77,SW,231,14.0,30.0,70,0.00,,FEW120,0.00,VWS V14.01,2013-01-12 16:45:00,
2013-01-12 10:47:00,39.8,30.5,29.77,West,271,14.0,30.0,69,0.00,,BKN220,0.00,VWS V14.01,2013-01-12 16:47:00,
2013-01-12 10:50:00,40.0,30.7,29.77,NW,306,9.0,25.0,69,0.00,,FEW120,0.00,VWS V14.01,2013-01-12 16:50:00,
2013-01-12 10:52:00,40.1,30.8,29.77,SW,224,22.0,28.0,69,0.00,,BKN220,0.00,VWS V14.01,2013-01-12 16:52:00,
2013-01-12 10:55:00,40.2,30.9,29.77,WSW,238,5.0,23.0,69,0.00,,FEW120,0.00,VWS V14.01,2013-01-12 16:55:00,
2013-01-12 10:57:00,40.2,30.9,29.77,WSW,239,20.0,25.0,69,0.00,,BKN220,0.00,VWS V14.01,2013-01-12 16:57:00,
2013-01-12 11:00:00,40.3,31.0,29.77,SSW,203,5.0,25.0,69,0.00,,FEW120,0.00,VWS V14.01,2013-01-12 17:00:00,
2013-01-12 11:02:00,40.4,31.0,29.77,West,267,5.0,22.0,69,0.00,,BKN250,0.00,VWS V14.01,2013-01-12 17:02:00,
2013-01-12 11:05:00,40.5,31.1,29.77,SW,216,13.0,24.0,69,0.00,,FEW120,0.00,VWS V14.01,2013-01-12 17:05:00,
2013-01-12 11:07:00,40.3,31.0,29.77,North,360,13.0,24.0,69,0.00,,BKN250,0.00,VWS V14.01,2013-01-12 17:07:00,
2013-01-12 11:10:00,40.3,31.0,29.78,SSW,199,20.0,26.0,69,0.00,,FEW120,0.00,VWS V14.01,2013-01-12 17:10:00,
2013-01-12 11:12:00,40.1,30.8,29.78,SW,224,13.0,26.0,69,0.00,,BKN250,0.00,VWS V14.01,2013-01-12 17:12:00,
2013-01-12 11:15:00,40.1,31.1,29.78,WSW,244,6.0,23.0,70,0.00,,FEW120,0.00,VWS V14.01,2013-01-12 17:15:00,
2013-01-12 11:17:00,40.2,31.2,29.78,SW,219,13.0,19.0,70,0.00,,BKN250,0.00,VWS V14.01,2013-01-12 17:17:00,
2013-01-12 11:20:00,40.1,31.1,29.78,WSW,238,18.0,23.0,70,0.00,,FEW120,0.00,VWS V14.01,2013-01-12 17:20:00,
2013-01-12 11:22:00,40.1,31.1,29.78,SW,236,15.0,23.0,70,0.00,,BKN250,0.00,VWS V14.01,2013-01-12 17:22:00,
2013-01-12 11:25:00,40.1,30.8,29.77,NW,320,6.0,23.0,69,0.00,,FEW120,0.00,VWS V14.01,2013-01-12 17:25:00,
2013-01-12 11:27:00,40.3,31.3,29.78,SW,232,15.0,23.0,70,0.00,,BKN250,0.00,VWS V14.01,2013-01-12 17:27:00,
2013-01-12 11:30:00,40.4,31.4,29.78,SW,226,11.0,22.0,70,0.00,,FEW120,0.00,VWS V14.01,2013-01-12 17:30:00,
2013-01-12 11:32:00,40.5,31.5,29.78,SSE,150,12.0,23.0,70,0.00,,BKN250,0.00,VWS V14.01,2013-01-12 17:32:00,
2013-01-12 11:35:00,40.5,31.1,29.78,SW,232,21.0,21.0,69,0.00,,FEW120,0.00,VWS V14.01,2013-01-12 17:35:00,
2013-01-12 11:37:00,40.4,31.4,29.77,North,360,12.0,21.0,70,0.00,,BKN250,0.00,VWS V14.01,2013-01-12 17:37:00,
2013-01-12 11:40:00,40.2,31.2,29.77,SSW,207,10.0,22.0,70,0.00,,FEW120,0.00,VWS V14.01,2013-01-12 17:40:00,
2013-01-12 11:42:00,40.2,31.2,29.77,South,172,12.0,22.0,70,0.00,,BKN250,0.00,VWS V14.01,2013-01-12 17:42:00,
2013-01-12 11:45:00,40.3,31.7,29.76,SW,227,11.0,21.0,71,0.00,,FEW120,0.00,VWS V14.01,2013-01-12 17:45:00,
2013-01-12 11:47:00,40.6,32.0,29.76,SW,226,7.0,19.0,71,0.00,,BKN250,0.00,VWS V14.01,2013-01-12 17:47:00,
2013-01-12 11:50:00,40.8,31.8,29.76,South,171,13.0,17.0,70,0.00,,FEW120,0.00,VWS V14.01,2013-01-12 17:50:00,
2013-01-12 11:52:00,40.8,31.8,29.76,SW,231,2.0,19.0,70,0.00,,BKN250,0.00,VWS V14.01,2013-01-12 17:52:00,
2013-01-12 11:55:00,40.9,31.9,29.76,West,269,7.0,16.0,70,0.00,,FEW120,0.00,VWS V14.01,2013-01-12 17:55:00,
2013-01-12 11:57:00,40.7,31.3,29.76,SW,217,15.0,20.0,69,0.00,,BKN250,0.00,VWS V14.01,2013-01-12 17:57:00,
2013-01-12 12:00:00,40.5,31.1,29.76,SW,235,9.0,25.0,69,0.00,,,0.00,VWS V14.01,2013-01-12 18:00:00,
2013-01-12 12:02:00,40.6,31.6,29.77,West,263,13.0,25.0,70,0.00,,BKN120,0.00,VWS V14.01,2013-01-12 18:02:00,
2013-01-12 12:05:00,40.7,31.7,29.77,West,269,17.0,20.0,70,0.00,,FEW120,0.00,VWS V14.01,2013-01-12 18:05:00,
2013-01-12 12:07:00,40.6,31.6,29.77,NNW,327,2.0,17.0,70,0.00,,BKN120,0.00,VWS V14.01,2013-01-12 18:07:00,
2013-01-12 12:10:00,40.6,31.6,29.77,SW,225,17.0,19.0,70,0.00,,FEW120,0.00,VWS V14.01,2013-01-12 18:10:00,
2013-01-12 12:13:00,40.6,31.2,29.78,SSE,161,13.0,17.0,69,0.00,,BKN120,0.00,VWS V14.01,2013-01-12 18:13:00,
2013-01-12 12:15:00,40.5,31.1,29.78,South,180,10.0,17.0,69,0.00,,FEW120,0.00,VWS V14.01,2013-01-12 18:15:00,
2013-01-12 12:18:00,40.3,31.0,29.78,SSE,167,15.0,19.0,69,0.00,,BKN120,0.00,VWS V14.01,2013-01-12 18:18:00,
2013-01-12 12:20:00,40.1,30.8,29.79,North,360,12.0,22.0,69,0.00,,FEW120,0.00,VWS V14.01,2013-01-12 18:20:00,
2013-01-12 12:23:00,40.0,30.7,29.79,SW,215,11.0,22.0,69,0.00,,BKN120,0.00,VWS V14.01,2013-01-12 18:23:00,
2013-01-12 12:25:00,39.8,30.5,29.79,SW,215,10.0,20.0,69,0.00,,FEW120,0.00,VWS V14.01,2013-01-12 18:25:00,
2013-01-12 12:28:00,39.7,30.0,29.78,SW,223,11.0,20.0,68,0.00,,BKN120,0.00,VWS V14.01,2013-01-12 18:28:00,
2013-01-12 12:30:00,39.6,29.9,29.78,WSW,251,12.0,20.0,68,0.00,,FEW120,0.00,VWS V14.01,2013-01-12 18:30:00,
2013-01-12 12:33:00,39.5,29.8,29.78,WSW,240,15.0,20.0,68,0.00,,BKN120,0.00,VWS V14.01,2013-01-12 18:33:00,
2013-01-12 12:35:00,39.2,29.2,29.78,North,360,13.0,23.0,67,0.00,,FEW120,0.00,VWS V14.01,2013-01-12 18:35:00,
2013-01-12 12:38:00,39.0,28.6,29.78,North,360,2.0,22.0,66,0.00,,BKN120,0.00,VWS V14.01,2013-01-12 18:38:00,
2013-01-12 12:40:00,38.9,28.5,29.78,SW,233,12.0,22.0,66,0.00,,FEW120,0.00,VWS V14.01,2013-01-12 18:40:00,
2013-01-12 12:43:00,39.0,28.6,29.77,West,259,17.0,21.0,66,0.00,,BKN120,0.00,VWS V14.01,2013-01-12 18:43:00,
2013-01-12 12:45:00,38.9,28.5,29.77,WSW,257,12.0,18.0,66,0.00,,FEW120,0.00,VWS V14.01,2013-01-12 18:45:00,
2013-01-12 12:48:00,38.9,28.5,29.77,North,360,8.0,16.0,66,0.00,,BKN120,0.00,VWS V14.01,2013-01-12 18:48:00,
2013-01-12 12:50:00,38.9,28.5,29.78,WSW,248,9.0,16.0,66,0.00,,,0.00,VWS V14.01,2013-01-12 18:50:00,
2013-01-12 12:53:00,39.0,28.6,29.78,WSW,245,9.0,19.0,66,0.00,,BKN120,0.00,VWS V14.01,2013-01-12 18:53:00,
2013-01-12 12:55:00,38.9,28.5,29.78,WSW,254,2.0,16.0,66,0.00,,,0.00,VWS V14.01,2013-01-12 18:55:00,
2013-01-12 12:58:00,38.7,28.0,29.78,SSE,167,9.0,16.0,65,0.00,,BKN120,0.00,VWS V14.01,2013-01-12 18:58:00,
2013-01-12 13:00:00,38.6,28.2,29.79,SW,220,7.0,16.0,66,0.00,,,0.00,VWS V14.01,2013-01-12 19:00:00,
2013-01-12 13:03:00,38.2,27.9,29.79,WSW,238,10.0,13.0,66,0.00,,BKN110,0.00,VWS V14.01,2013-01-12 19:03:00,
2013-01-12 13:05:00,38.1,28.1,29.79,SSW,210,6.0,18.0,67,0.00,,,0.00,VWS V14.01,2013-01-12 19:05:00,
2013-01-12 13:08:00,38.0,28.4,29.80,SSW,206,4.0,15.0,68,0.00,,BKN110,0.00,VWS V14.01,2013-01-12 19:08:00,
2013-01-12 13:10:00,38.1,28.5,29.80,SSW,203,7.0,15.0,68,0.00,,,0.00,VWS V14.01,2013-01-12 19:10:00,
2013-01-12 13:13:00,38.0,29.1,29.80,South,184,5.0,17.0,70,0.00,,BKN110,0.00,VWS V14.01,2013-01-12 19:13:00,
2013-01-12 13:15:00,38.1,29.2,29.80,South,175,9.0,17.0,70,0.00,,FEW120,0.00,VWS V14.01,2013-01-12 19:15:00,
2013-01-12 13:18:00,37.9,29.0,29.80,SW,221,12.0,22.0,70,0.00,,BKN110,0.00,VWS V14.01,2013-01-12 19:18:00,
2013-01-12 13:20:00,37.9,29.0,29.81,SW,214,17.0,20.0,70,0.00,,,0.00,VWS V14.01,2013-01-12 19:20:00,
2013-01-12 13:23:00,37.9,29.0,29.81,WSW,240,11.0,20.0,70,0.00,,BKN110,0.00,VWS V14.01,2013-01-12 19:23:00,
2013-01-12 13:25:00,38.0,28.8,29.81,SSE,158,12.0,22.0,69,0.00,,FEW120,0.00,VWS V14.01,2013-01-12 19:25:00,
2013-01-12 13:28:00,38.0,28.8,29.81,NW,322,6.0,21.0,69,0.00,,BKN110,0.00,VWS V14.01,2013-01-12 19:28:00,
2013-01-12 13:30:00,38.0,28.8,29.82,SW,225,5.0,17.0,69,0.00,,FEW120,0.00,VWS V14.01,2013-01-12 19:30:00,
2013-01-12 13:33:00,38.0,28.4,29.82,SW,225,6.0,22.0,68,0.00,,BKN110,0.00,VWS V14.01,2013-01-12 19:33:00,
2013-01-12 13:35:00,38.0,28.8,29.82,SSE,152,5.0,22.0,69,0.00,,FEW120,0.00,VWS V14.01,2013-01-12 19:35:00,
2013-01-12 13:38:00,38.4,28.8,29.82,SW,225,12.0,14.0,68,0.00,,BKN110,0.00,VWS V14.01,2013-01-12 19:38:00,
2013-01-12 13:40:00,38.4,28.8,29.82,South,186,10.0,19.0,68,0.00,,FEW120,0.00,VWS V14.01,2013-01-12 19:40:00,
2013-01-12 13:44:00,37.9,27.9,29.82,SW,221,11.0,20.0,67,0.00,,BKN110,0.00,VWS V14.01,2013-01-12 19:44:00,
2013-01-12 13:45:00,37.8,28.2,29.82,SSW,202,7.0,19.0,68,0.00,,FEW120,0.00,VWS V14.01,2013-01-12 19:45:00,
2013-01-12 13:49:00,37.7,28.1,29.83,WSW,245,7.0,22.0,68,0.00,,BKN110,0.00,VWS V14.01,2013-01-12 19:49:00,
2013-01-12 13:50:00,37.7,28.1,29.83,SSW,195,7.0,22.0,68,0.00,,FEW120,0.00,VWS V14.01,2013-01-12 19:50:00,
2013-01-12 13:54:00,38.0,28.4,29.83,West,279,14.0,20.0,68,0.00,,BKN110,0.00,VWS V14.01,2013-01-12 19:54:00,
2013-01-12 13:55:00,38.0,28.4,29.83,West,265,9.0,20.0,68,0.00,,FEW120,0.00,VWS V14.01,2013-01-12 19:55:00,
2013-01-12 13:59:00,38.3,28.7,29.83,SW,217,7.0,17.0,68,0.00,,BKN110,0.00,VWS V14.01,2013-01-12 19:59:00,
2013-01-12 14:00:00,38.2,28.2,29.84,North,360,11.0,17.0,67,0.00,,FEW120,0.00,VWS V14.01,2013-01-12 20:00:00,
2013-01-12 14:04:00,38.0,28.4,29.84,SW,216,8.0,14.0,68,0.00,,BKN250,0.00,VWS V14.01,2013-01-12 20:04:00,
2013-01-12 14:05:00,37.9,28.3,29.83,South,174,7.0,16.0,68,0.00,,FEW120,0.00,VWS V14.01,2013-01-12 20:05:00,
2013-01-12 14:09:00,37.2,27.3,29.82,North,360,10.0,17.0,67,0.00,,BKN250,0.00,VWS V14.01,2013-01-12 20:09:00,
2013-01-12 14:10:00,37.0,27.1,29.82,WSW,244,10.0,17.0,67,0.00,,FEW120,0.00,VWS V14.01,2013-01-12 20:10:00,
2013-01-12 14:14:00,36.5,27.0,29.83,SW,215,4.0,15.0,68,0.00,,BKN250,0.00,VWS V14.01,2013-01-12 20:14:00,
2013-01-12 14:15:00,36.6,27.4,29.83,SW,225,0.0,15.0,69,0.00,,FEW120,0.00,VWS V14.01,2013-01-12 20:15:00,
2013-01-12 14:19:00,36.6,27.4,29.83,SW,232,13.0,15.0,69,0.00,,BKN250,0.00,VWS V14.01,2013-01-12 20:19:00,
2013-01-12 14:20:00,36.6,27.4,29.83,SW,223,8.0,15.0,69,0.00,,FEW120,0.00,VWS V14.01,2013-01-12 20:20:00,
2013-01-12 14:24:00,36.4,26.5,29.83,SW,234,12.0,16.0,67,0.00,,BKN250,0.00,VWS V14.01,2013-01-12 20:24:00,
2013-01-12 14:25:00,36.3,26.4,29.83,WSW,243,6.0,19.0,67,0.00,,FEW120,0.00,VWS V14.01,2013-01-12 20:25:00,
2013-01-12 14:29:00,35.9,26.0,29.84,WSW,250,9.0,17.0,67,0.00,,BKN250,0.00,VWS V14.01,2013-01-12 20:29:00,
2013-01-12 14:30:00,35.9,26.0,29.84,SW,232,8.0,17.0,67,0.00,,FEW120,0.00,VWS V14.01,2013-01-12 20:30:00,
2013-01-12 14:34:00,35.7,25.5,29.84,SSW,211,14.0,19.0,66,0.00,,BKN250,0.00,VWS V14.01,2013-01-12 20:34:00,
2013-01-12 14:35:00,35.7,25.5,29.84,WSW,254,9.0,19.0,66,0.00,,FEW120,0.00,VWS V14.01,2013-01-12 20:35:00,
2013-01-12 14:39:00,35.5,25.3,29.84,West,270,9.0,23.0,66,0.00,,BKN250,0.00,VWS V14.01,2013-01-12 20:39:00,
2013-01-12 14:40:00,35.5,25.3,29.84,WSW,244,7.0,23.0,66,0.00,,FEW120,0.00,VWS V14.01,2013-01-12 20:40:00,
2013-01-12 14:44:00,35.3,25.1,29.85,SW,224,7.0,16.0,66,0.00,,BKN250,0.00,VWS V14.01,2013-01-12 20:44:00,
2013-01-12 14:45:00,35.3,25.1,29.85,WSW,249,7.0,16.0,66,0.00,,FEW120,0.00,VWS V14.01,2013-01-12 20:45:00,
2013-01-12 14:49:00,35.3,25.1,29.85,WSW,246,9.0,16.0,66,0.00,,BKN250,0.00,VWS V14.01,2013-01-12 20:49:00,
2013-01-12 14:50:00,35.3,25.1,29.85,West,261,15.0,18.0,66,0.00,,FEW120,0.00,VWS V14.01,2013-01-12 20:50:00,
2013-01-12 14:54:00,35.2,25.4,29.85,SW,219,15.0,19.0,67,0.00,,BKN250,0.00,VWS V14.01,2013-01-12 20:54:00,
2013-01-12 14:55:00,35.3,25.5,29.85,SSW,200,10.0,19.0,67,0.00,,FEW120,0.00,VWS V14.01,2013-01-12 20:55:00,
2013-01-12 14:59:00,35.3,25.5,29.85,WSW,242,17.0,17.0,67,0.00,,BKN250,0.00,VWS V14.01,2013-01-12 20:59:00,
2013-01-12 15:00:00,35.3,25.5,29.85,West,280,12.0,17.0,67,0.00,,FEW120,0.00,VWS V14.01,2013-01-12 21:00:00,
2013-01-12 15:04:00,34.8,25.0,29.85,South,191,2.0,18.0,67,0.00,,BKN250,0.00,VWS V14.01,2013-01-12 21:04:00,
2013-01-12 15:05:00,34.8,25.0,29.85,SSW,193,3.0,18.0,67,0.00,,FEW120,0.00,VWS V14.01,2013-01-12 21:05:00,
2013-01-12 15:09:00,34.6,25.1,29.85,West,266,4.0,17.0,68,0.00,,BKN250,0.00,VWS V14.01,2013-01-12 21:09:00,
2013-01-12 15:10:00,34.6,25.1,29.84,West,261,7.0,17.0,68,0.00,,FEW120,0.00,VWS V14.01,2013-01-12 21:10:00,
2013-01-12 15:14:00,34.6,25.5,29.85,North,360,10.0,14.0,69,0.00,,BKN250,0.00,VWS V14.01,2013-01-12 21:14:00,
2013-01-12 15:15:00,34.6,25.5,29.85,North,360,8.0,11.0,69,0.00,,FEW120,0.00,VWS V14.01,2013-01-12 21:15:00,
2013-01-12 15:19:00,34.5,25.4,29.86,WSW,245,10.0,18.0,69,0.00,,BKN250,0.00,VWS V14.01,2013-01-12 21:19:00,
2013-01-12 15:20:00,34.5,25.4,29.86,WSW,245,10.0,18.0,69,0.00,,FEW120,0.00,VWS V14.01,2013-01-12 21:20:00,
2013-01-12 15:24:00,34.4,25.0,29.86,WSW,248,8.0,17.0,68,0.00,,BKN250,0.00,VWS V14.01,2013-01-12 21:24:00,
2013-01-12 15:25:00,34.4,25.0,29.86,WSW,248,8.0,17.0,68,0.00,,FEW120,0.00,VWS V14.01,2013-01-12 21:25:00,
2013-01-12 15:30:00,34.1,24.7,29.85,SW,221,2.0,15.0,68,0.00,,BKN250,0.00,VWS V14.01,2013-01-12 21:30:00,
2013-01-12 15:35:00,34.0,24.9,29.86,SSW,207,6.0,18.0,69,0.00,,BKN250,0.00,VWS V14.01,2013-01-12 21:35:00,
2013-01-12 15:40:00,33.8,24.7,29.86,North,360,15.0,19.0,69,0.00,,BKN250,0.00,VWS V14.01,2013-01-12 21:40:00,
2013-01-12 15:45:00,33.7,24.6,29.86,West,271,11.0,20.0,69,0.00,,BKN250,0.00,VWS V14.01,2013-01-12 21:45:00,
2013-01-12 15:50:00,33.6,24.5,29.86,West,272,8.0,17.0,69,0.00,,BKN250,0.00,VWS V14.01,2013-01-12 21:50:00,
2013-01-12 15:55:00,33.6,24.9,29.86,SW,229,15.0,16.0,70,0.00,,BKN250,0.00,VWS V14.01,2013-01-12 21:55:00,
2013-01-12 16:00:00,33.6,24.9,29.86,West,271,7.0,15.0,70,0.00,,BKN250,0.00,VWS V14.01,2013-01-12 22:00:00,
2013-01-12 16:05:00,33.7,25.0,29.86,WNW,287,5.0,13.0,70,0.00,,OVC100,0.00,VWS V14.01,2013-01-12 22:05:00,
2013-01-12 16:10:00,33.4,24.7,29.86,West,277,8.0,14.0,70,0.00,,OVC100,0.00,VWS V14.01,2013-01-12 22:10:00,
2013-01-12 16:15:00,33.2,24.8,29.87,SW,234,12.0,15.0,71,0.00,,OVC100,0.00,VWS V14.01,2013-01-12 22:15:00,
2013-01-12 16:20:00,33.2,24.8,29.88,West,265,3.0,12.0,71,0.00,,OVC100,0.00,VWS V14.01,2013-01-12 22:20:00,
2013-01-12 16:25:00,33.2,24.8,29.89,SW,217,8.0,12.0,71,0.00,,OVC100,0.00,VWS V14.01,2013-01-12 22:25:00,
2013-01-12 16:30:00,33.2,24.5,29.89,West,268,2.0,13.0,70,0.00,,OVC100,0.00,VWS V14.01,2013-01-12 22:30:00,
2013-01-12 16:35:00,33.2,24.5,29.89,WSW,251,0.0,11.0,70,0.00,,FEW120,0.00,VWS V14.01,2013-01-12 22:35:00,
2013-01-12 16:36:00,33.2,24.5,29.90,SW,232,4.0,11.0,70,0.00,,OVC100,0.00,VWS V14.01,2013-01-12 22:36:00,
2013-01-12 16:40:00,33.2,24.5,29.90,WSW,244,5.0,10.0,70,0.00,,FEW120,0.00,VWS V14.01,2013-01-12 22:40:00,
2013-01-12 16:41:00,33.1,24.7,29.90,WSW,250,1.0,14.0,71,0.00,,OVC100,0.00,VWS V14.01,2013-01-12 22:41:00,
2013-01-12 16:45:00,33.1,24.4,29.90,South,174,3.0,16.0,70,0.00,,FEW120,0.00,VWS V14.01,2013-01-12 22:45:00,
2013-01-12 16:46:00,33.1,24.7,29.90,SW,223,1.0,10.0,71,0.00,,OVC100,0.00,VWS V14.01,2013-01-12 22:46:00,
2013-01-12 16:50:00,33.0,24.6,29.90,WSW,250,7.0,11.0,71,0.00,,FEW120,0.00,VWS V14.01,2013-01-12 22:50:00,
2013-01-12 16:51:00,33.0,24.6,29.90,SW,217,4.0,12.0,71,0.00,,OVC100,0.00,VWS V14.01,2013-01-12 22:51:00,
2013-01-12 16:55:00,32.8,24.1,29.90,SSW,203,3.0,15.0,70,0.00,,FEW120,0.00,VWS V14.01,2013-01-12 22:55:00,
2013-01-12 16:56:00,32.7,24.0,29.91,West,269,12.0,14.0,70,0.00,,OVC100,0.00,VWS V14.01,2013-01-12 22:56:00,
2013-01-12 17:00:00,32.6,24.2,29.91,SW,222,4.0,14.0,71,0.00,,FEW120,0.00,VWS V14.01,2013-01-12 23:00:00,
2013-01-12 17:01:00,32.6,24.2,29.91,West,273,1.0,14.0,71,0.00,,OVC085,0.00,VWS V14.01,2013-01-12 23:01:00,
2013-01-12 17:05:00,32.6,24.2,29.90,SW,216,10.0,14.0,71,0.00,,FEW120,0.00,VWS V14.01,2013-01-12 23:05:00,
2013-01-12 17:06:00,32.6,24.2,29.91,WNW,290,6.0,14.0,71,0.00,,OVC085,0.00,VWS V14.01,2013-01-12 23:06:00,
2013-01-12 17:10:00,32.5,24.2,29.91,SSW,207,1.0,14.0,71,0.00,,FEW120,0.00,VWS V14.01,2013-01-12 23:10:00,
2013-01-12 17:11:00,32.5,24.2,29.91,WSW,239,1.0,12.0,71,0.00,,OVC085,0.00,VWS V14.01,2013-01-12 23:11:00,
2013-01-12 17:15:00,32.4,24.1,29.91,West,276,1.0,11.0,71,0.00,,FEW120,0.00,VWS V14.01,2013-01-12 23:15:00,
2013-01-12 17:16:00,32.4,24.4,29.91,WSW,242,0.0,11.0,72,0.00,,OVC085,0.00,VWS V14.01,2013-01-12 23:16:00,
2013-01-12 17:20:00,32.3,24.3,29.91,SW,218,2.0,10.0,72,0.00,,FEW120,0.00,VWS V14.01,2013-01-12 23:20:00,
2013-01-12 17:21:00,32.3,24.3,29.91,SSW,196,0.0,10.0,72,0.00,,OVC085,0.00,VWS V14.01,2013-01-12 23:21:00,
2013-01-12 17:25:00,32.4,24.4,29.90,West,277,6.0,9.0,72,0.00,,FEW120,0.00,VWS V14.01,2013-01-12 23:25:00,
2013-01-12 17:26:00,32.3,24.3,29.90,SW,236,3.0,9.0,72,0.00,,OVC085,0.00,VWS V14.01,2013-01-12 23:26:00,
2013-01-12 17:30:00,32.3,24.3,29.89,West,265,3.0,12.0,72,0.00,,FEW120,0.00,VWS V14.01,2013-01-12 23:30:00,
2013-01-12 17:31:00,32.2,24.5,29.89,West,271,9.0,12.0,73,0.00,,OVC085,0.00,VWS V14.01,2013-01-12 23:31:00,
2013-01-12 17:35:00,32.1,24.1,29.89,SW,225,2.0,11.0,72,0.00,,FEW120,0.00,VWS V14.01,2013-01-12 23:35:00,
2013-01-12 17:37:00,32.1,24.1,29.89,WNW,290,2.0,10.0,72,0.00,,OVC085,0.00,VWS V14.01,2013-01-12 23:37:00,
2013-01-12 17:40:00,32.1,24.4,29.89,West,259,4.0,11.0,73,0.00,,FEW120,0.00,VWS V14.01,2013-01-12 23:40:00,
2013-01-12 17:42:00,32.1,24.4,29.88,West,280,3.0,11.0,73,0.00,,OVC085,0.00,VWS V14.01,2013-01-12 23:42:00,
2013-01-12 17:45:00,32.1,24.4,29.88,West,274,6.0,8.0,73,0.00,,FEW120,0.00,VWS V14.01,2013-01-12 23:45:00,
2013-01-12 17:47:00,32.0,24.3,29.88,WSW,258,11.0,13.0,73,0.00,,OVC085,0.00,VWS V14.01,2013-01-12 23:47:00,
2013-01-12 17:50:00,32.0,24.3,29.87,West,272,3.0,13.0,73,0.00,,FEW120,0.00,VWS V14.01,2013-01-12 23:50:00,
2013-01-12 17:52:00,32.0,24.3,29.87,West,265,1.0,12.0,73,0.00,,OVC085,0.00,VWS V14.01,2013-01-12 23:52:00,
2013-01-12 17:55:00,32.0,24.3,29.87,WNW,290,6.0,9.0,73,0.00,,FEW120,0.00,VWS V14.01,2013-01-12 23:55:00,
2013-01-12 17:57:00,32.0,24.3,29.87,West,268,6.0,9.0,73,0.00,,OVC085,0.00,VWS V14.01,2013-01-12 23:57:00,
2013-01-12 18:00:00,32.0,24.3,29.86,West,278,3.0,9.0,73,0.00,,FEW120,0.00,VWS V14.01,2013-01-13 00:00:00,
2013-01-12 18:02:00,32.0,24.3,29.86,West,272,0.0,9.0,73,0.00,,OVC100,0.00,VWS V14.01,2013-01-13 00:02:00,
2013-01-12 18:05:00,32.0,24.3,29.86,WNW,290,1.0,6.0,73,0.00,,FEW120,0.00,VWS V14.01,2013-01-13 00:05:00,
2013-01-12 18:07:00,32.0,24.7,29.86,West,274,1.0,4.0,74,0.00,,OVC100,0.00,VWS V14.01,2013-01-13 00:07:00,
2013-01-12 18:10:00,32.1,24.4,29.87,SW,234,0.0,4.0,73,0.00,,FEW120,0.00,VWS V14.01,2013-01-13 00:10:00,
2013-01-12 18:12:00,32.2,24.9,29.87,SW,227,0.0,4.0,74,0.00,,OVC100,0.00,VWS V14.01,2013-01-13 00:12:00,
2013-01-12 18:15:00,32.2,24.5,29.87,SW,227,0.0,3.0,73,0.00,,FEW120,0.00,VWS V14.01,2013-01-13 00:15:00,
2013-01-12 18:17:00,32.3,24.6,29.88,SW,236,0.0,4.0,73,0.00,,OVC100,0.00,VWS V14.01,2013-01-13 00:17:00,
2013-01-12 18:20:00,32.3,24.6,29.88,SW,230,2.0,4.0,73,0.00,,FEW120,0.00,VWS V14.01,2013-01-13 00:20:00,
2013-01-12 18:22:00,32.3,24.3,29.88,SW,223,0.0,5.0,72,0.00,,OVC100,0.00,VWS V14.01,2013-01-13 00:22:00,
2013-01-12 18:25:00,32.2,24.2,29.88,SSW,198,5.0,6.0,72,0.00,,FEW120,0.00,VWS V14.01,2013-01-13 00:25:00,
2013-01-12 18:27:00,32.1,24.1,29.88,SSW,204,1.0,6.0,72,0.00,,OVC100,0.00,VWS V14.01,2013-01-13 00:27:00,
2013-01-12 18:30:00,32.1,24.1,29.87,SW,218,0.0,5.0,72,0.00,,FEW120,0.00,VWS V14.01,2013-01-13 00:30:00,
2013-01-12 18:32:00,32.1,24.1,29.88,SW,227,1.0,4.0,72,0.00,,OVC100,0.00,VWS V14.01,2013-01-13 00:32:00,
2013-01-12 18:35:00,32.1,24.1,29.88,SSW,201,2.0,4.0,72,0.00,,FEW120,0.00,VWS V14.01,2013-01-13 00:35:00,
2013-01-12 18:37:00,32.1,24.1,29.89,SSW,205,1.0,4.0,72,0.00,,OVC100,0.00,VWS V14.01,2013-01-13 00:37:00,
2013-01-12 18:40:00,32.1,24.4,29.88,North,360,2.0,4.0,73,0.00,,FEW120,0.00,VWS V14.01,2013-01-13 00:40:00,
2013-01-12 18:42:00,32.1,24.1,29.89,South,188,2.0,4.0,72,0.00,,OVC100,0.00,VWS V14.01,2013-01-13 00:42:00,
2013-01-12 18:45:00,32.1,24.1,29.89,SSW,213,5.0,6.0,72,0.00,,FEW120,0.00,VWS V14.01,2013-01-13 00:45:00,
2013-01-12 18:47:00,32.1,24.1,29.89,SSW,202,1.0,7.0,72,0.00,,OVC100,0.00,VWS V14.01,2013-01-13 00:47:00,
2013-01-12 18:50:00,32.0,24.0,29.89,South,181,0.0,5.0,72,0.00,,FEW120,0.00,VWS V14.01,2013-01-13 00:50:00,
2013-01-12 18:52:00,32.1,24.1,29.88,SW,225,3.0,4.0,72,0.00,,OVC100,0.00,VWS V14.01,2013-01-13 00:52:00,
2013-01-12 18:55:00,32.1,24.1,29.88,SW,229,4.0,4.0,72,0.00,,FEW120,0.00,VWS V14.01,2013-01-13 00:55:00,
2013-01-12 18:58:00,32.1,24.1,29.88,WNW,284,2.0,5.0,72,0.00,,OVC100,0.00,VWS V14.01,2013-01-13 00:58:00,
2013-01-12 19:00:00,32.0,24.0,29.87,West,274,4.0,4.0,72,0.00,,FEW120,0.00,VWS V14.01,2013-01-13 01:00:00,
2013-01-12 19:03:00,31.9,23.6,29.86,WNW,295,3.0,9.0,71,0.00,,OVC095,0.00,VWS V14.01,2013-01-13 01:03:00,
2013-01-12 19:05:00,31.8,23.8,29.86,WNW,286,3.0,9.0,72,0.00,,FEW120,0.00,VWS V14.01,2013-01-13 01:05:00,
2013-01-12 19:08:00,31.9,23.9,29.86,West,263,7.0,8.0,72,0.00,,OVC095,0.00,VWS V14.01,2013-01-13 01:08:00,
2013-01-12 19:10:00,31.8,23.8,29.86,West,265,3.0,9.0,72,0.00,,FEW120,0.00,VWS V14.01,2013-01-13 01:10:00,
2013-01-12 19:13:00,31.8,23.8,29.87,West,274,0.0,9.0,72,0.00,,OVC095,0.00,VWS V14.01,2013-01-13 01:13:00,
2013-01-12 19:15:00,31.8,23.8,29.88,West,271,4.0,9.0,72,0.00,,FEW120,0.00,VWS V14.01,2013-01-13 01:15:00,
2013-01-12 19:18:00,31.8,23.8,29.89,WSW,257,2.0,9.0,72,0.00,,OVC095,0.00,VWS V14.01,2013-01-13 01:18:00,
2013-01-12 19:20:00,31.8,23.8,29.89,WSW,258,1.0,4.0,72,0.00,,FEW120,0.00,VWS V14.01,2013-01-13 01:20:00,
2013-01-12 19:23:00,31.8,23.8,29.89,WSW,257,6.0,9.0,72,0.00,,OVC095,0.00,VWS V14.01,2013-01-13 01:23:00,
2013-01-12 19:25:00,31.8,23.8,29.89,West,272,7.0,10.0,72,0.00,,FEW120,0.00,VWS V14.01,2013-01-13 01:25:00,
2013-01-12 19:28:00,31.7,23.7,29.89,WSW,255,9.0,10.0,72,0.00,,OVC095,0.00,VWS V14.01,2013-01-13 01:28:00,
2013-01-12 19:30:00,31.7,23.7,29.89,West,262,3.0,12.0,72,0.00,,FEW120,0.00,VWS V14.01,2013-01-13 01:30:00,
2013-01-12 19:33:00,31.7,23.7,29.90,WSW,258,1.0,5.0,72,0.00,,OVC095,0.00,VWS V14.01,2013-01-13 01:33:00,
2013-01-12 19:35:00,31.8,23.8,29.90,WSW,257,0.0,5.0,72,0.00,,FEW120,0.00,VWS V14.01,2013-01-13 01:35:00,
2013-01-12 19:38:00,31.7,23.7,29.90,West,261,2.0,6.0,72,0.00,,OVC095,0.00,VWS V14.01,2013-01-13 01:38:00,
2013-01-12 19:40:00,31.7,23.7,29.90,West,261,0.0,6.0,72,0.00,,FEW120,0.00,VWS V14.01,2013-01-13 01:40:00,
2013-01-12 19:43:00,31.9,24.2,29.91,WSW,244,0.0,3.0,73,0.00,,OVC095,0.00,VWS V14.01,2013-01-13 01:43:00,
2013-01-12 19:45:00,31.9,23.9,29.91,WSW,246,2.0,2.0,72,0.00,,FEW120,0.00,VWS V14.01,2013-01-13 01:45:00,
2013-01-12 19:48:00,31.9,24.2,29.91,WSW,238,0.0,3.0,73,0.00,,OVC095,0.00,VWS V14.01,2013-01-13 01:48:00,
2013-01-12 19:50:00,32.0,24.3,29.91,SSW,203,4.0,9.0,73,0.00,,FEW120,0.00,VWS V14.01,2013-01-13 01:50:00,
2013-01-12 19:53:00,31.9,23.9,29.91,West,261,3.0,9.0,72,0.00,,OVC095,0.00,VWS V14.01,2013-01-13 01:53:00,
2013-01-12 19:55:00,31.9,23.9,29.91,WSW,253,5.0,6.0,72,0.00,,FEW120,0.00,VWS V14.01,2013-01-13 01:55:00,
2013-01-12 19:58:00,31.8,23.8,29.91,WSW,244,3.0,9.0,72,0.00,,OVC095,0.00,VWS V14.01,2013-01-13 01:58:00,
2013-01-12 20:00:00,31.8,23.8,29.91,SW,230,0.0,9.0,72,0.00,,FEW120,0.00,VWS V14.01,2013-01-13 02:00:00,
2013-01-12 20:03:00,31.8,23.8,29.91,WSW,251,1.0,5.0,72,0.00,,OVC065,0.00,VWS V14.01,2013-01-13 02:03:00,
2013-01-12 20:05:00,31.8,23.8,29.91,WSW,242,1.0,5.0,72,0.00,,FEW120,0.00,VWS V14.01,2013-01-13 02:05:00,
2013-01-12 20:09:00,31.8,23.8,29.91,West,266,2.0,5.0,72,0.00,,OVC065,0.00,VWS V14.01,2013-01-13 02:09:00,
2013-01-12 20:10:00,31.8,24.1,29.91,WSW,257,1.0,4.0,73,0.00,,FEW120,0.00,VWS V14.01,2013-01-13 02:10:00,
2013-01-12 20:14:00,31.8,23.8,29.92,West,276,6.0,6.0,72,0.00,,OVC065,0.00,VWS V14.01,2013-01-13 02:14:00,
2013-01-12 20:15:00,31.7,23.7,29.92,WSW,250,2.0,6.0,72,0.00,,FEW120,0.00,VWS V14.01,2013-01-13 02:15:00,
2013-01-12 20:19:00,31.7,24.0,29.91,West,259,2.0,8.0,73,0.00,,OVC065,0.00,VWS V14.01,2013-01-13 02:19:00,
2013-01-12 20:20:00,31.7,24.0,29.92,West,269,0.0,8.0,73,0.00,,FEW120,0.00,VWS V14.01,2013-01-13 02:20:00,
2013-01-12 20:24:00,31.6,24.0,29.92,West,272,3.0,9.0,73,0.00,,OVC065,0.00,VWS V14.01,2013-01-13 02:24:00,
2013-01-12 20:25:00,31.6,23.6,29.92,West,267,5.0,10.0,72,0.00,,FEW120,0.00,VWS V14.01,2013-01-13 02:25:00,
2013-01-12 20:29:00,31.4,23.8,29.92,West,260,7.0,11.0,73,0.00,,OVC065,0.00,VWS V14.01,2013-01-13 02:29:00,
2013-01-12 20:30:00,31.4,23.8,29.92,West,277,6.0,11.0,73,0.00,,FEW120,0.00,VWS V14.01,2013-01-13 02:30:00,
2013-01-12 20:34:00,31.4,23.8,29.92,West,281,2.0,5.0,73,0.00,,OVC065,0.00,VWS V14.01,2013-01-13 02:34:00,
2013-01-12 20:35:00,31.4,23.8,29.92,West,276,0.0,5.0,73,0.00,,FEW120,0.00,VWS V14.01,2013-01-13 02:35:00,
2013-01-12 20:39:00,31.2,23.2,29.94,West,277,2.0,10.0,72,0.00,,OVC065,0.00,VWS V14.01,2013-01-13 02:39:00,
2013-01-12 20:40:00,31.2,23.2,29.94,West,262,4.0,10.0,72,0.00,,FEW120,0.00,VWS V14.01,2013-01-13 02:40:00,
2013-01-12 20:44:00,31.1,22.8,29.94,West,274,7.0,10.0,71,0.00,,OVC065,0.00,VWS V14.01,2013-01-13 02:44:00,
2013-01-12 20:45:00,31.1,22.8,29.94,West,275,8.0,10.0,71,0.00,,FEW120,0.00,VWS V14.01,2013-01-13 02:45:00,
2013-01-12 20:49:00,31.0,22.7,29.93,West,277,7.0,11.0,71,0.00,,OVC065,0.00,VWS V14.01,2013-01-13 02:49:00,
2013-01-12 20:50:00,31.0,22.7,29.93,West,269,8.0,11.0,71,0.00,,FEW120,0.00,VWS V14.01,2013-01-13 02:50:00,
2013-01-12 20:54:00,30.8,22.9,29.93,West,267,7.0,9.0,72,0.00,,OVC065,0.00,VWS V14.01,2013-01-13 02:54:00,
2013-01-12 20:55:00,30.8,22.9,29.92,West,275,6.0,9.0,72,0.00,,FEW120,0.00,VWS V14.01,2013-01-13 02:55:00,
2013-01-12 20:59:00,30.8,23.2,29.92,WSW,254,1.0,11.0,73,0.00,,OVC065,0.00,VWS V14.01,2013-01-13 02:59:00,
2013-01-12 21:00:00,30.8,23.2,29.92,West,279,3.0,11.0,73,0.00,,FEW120,0.00,VWS V14.01,2013-01-13 03:00:00,
2013-01-12 21:04:00,30.7,23.1,29.92,North,360,8.0,12.0,73,0.00,,OVC060,0.00,VWS V14.01,2013-01-13 03:04:00,
2013-01-12 21:05:00,30.7,23.1,29.92,West,263,6.0,12.0,73,0.00,,FEW120,0.00,VWS V14.01,2013-01-13 03:05:00,
2013-01-12 21:09:00,30.5,22.6,29.91,West,262,9.0,16.0,72,0.00,,OVC060,0.00,VWS V14.01,2013-01-13 03:09:00,
2013-01-12 21:10:00,30.5,22.6,29.91,West,267,10.0,16.0,72,0.00,,FEW120,0.00,VWS V14.01,2013-01-13 03:10:00,
2013-01-12 21:14:00,30.3,22.4,29.91,North,360,11.0,15.0,72,0.00,,OVC060,0.00,VWS V14.01,2013-01-13 03:14:00,
2013-01-12 21:15:00,30.3,22.4,29.91,North,360,11.0,15.0,72,0.00,,FEW120,0.00,VWS V14.01,2013-01-13 03:15:00,
2013-01-12 21:19:00,30.1,22.2,29.90,West,277,9.0,14.0,72,0.00,,OVC060,0.00,VWS V14.01,2013-01-13 03:19:00,
2013-01-12 21:20:00,30.1,22.2,29.90,West,277,9.0,14.0,72,0.00,,FEW120,0.00,VWS V14.01,2013-01-13 03:20:00,
2013-01-12 21:24:00,30.0,22.4,29.90,West,263,9.0,11.0,73,0.00,,OVC060,0.00,VWS V14.01,2013-01-13 03:24:00,
2013-01-12 21:25:00,30.0,22.4,29.90,West,263,9.0,11.0,73,0.00,,FEW120,0.00,VWS V14.01,2013-01-13 03:25:00,
2013-01-12 21:29:00,30.0,22.4,29.91,WNW,293,5.0,10.0,73,0.00,,OVC060,0.00,VWS V14.01,2013-01-13 03:29:00,
2013-01-12 21:30:00,30.0,22.4,29.91,WNW,293,5.0,10.0,73,0.00,,FEW120,0.00,VWS V14.01,2013-01-13 03:30:00,
2013-01-12 21:34:00,29.9,22.3,29.90,West,270,4.0,17.0,73,0.00,,OVC060,0.00,VWS V14.01,2013-01-13 03:34:00,
2013-01-12 21:35:00,29.9,22.3,29.90,West,270,4.0,17.0,73,0.00,,FEW120,0.00,VWS V14.01,2013-01-13 03:35:00,
2013-01-12 21:40:00,29.7,22.4,29.91,WSW,244,11.0,14.0,74,0.00,,OVC060,0.00,VWS V14.01,2013-01-13 03:40:00,
2013-01-12 21:45:00,29.7,22.8,29.91,West,273,6.0,11.0,75,0.00,,OVC060,0.00,VWS V14.01,2013-01-13 03:45:00,
2013-01-12 21:50:00,29.6,23.0,29.90,WNW,287,4.0,12.0,76,0.00,,OVC060,0.00,VWS V14.01,2013-01-13 03:50:00,
2013-01-12 21:55:00,29.3,23.0,29.90,West,263,10.0,13.0,77,0.00,,OVC060,0.00,VWS V14.01,2013-01-13 03:55:00,
2013-01-12 22:00:00,29.3,23.3,29.89,West,269,5.0,11.0,78,0.00,,OVC070,0.00,VWS V14.01,2013-01-13 04:00:00,
2013-01-12 22:05:00,29.2,23.8,29.89,West,265,8.0,11.0,80,0.00,,OVC070,0.00,VWS V14.01,2013-01-13 04:05:00,
2013-01-12 22:10:00,28.8,23.7,29.89,WNW,286,8.0,13.0,81,0.00,,OVC070,0.00,VWS V14.01,2013-01-13 04:10:00,
2013-01-12 22:15:00,28.4,23.9,29.89,West,272,8.0,12.0,83,0.00,,OVC070,0.00,VWS V14.01,2013-01-13 04:15:00,
2013-01-12 22:20:00,28.1,23.9,29.88,WNW,298,9.0,13.0,84,0.00,,OVC070,0.00,VWS V14.01,2013-01-13 04:20:00,
2013-01-12 22:25:00,28.0,24.4,29.88,West,278,7.0,10.0,86,0.00,,OVC070,0.00,VWS V14.01,2013-01-13 04:25:00,
2013-01-12 22:30:00,27.9,24.3,29.87,WNW,285,9.0,13.0,86,0.00,,OVC070,0.00,VWS V14.01,2013-01-13 04:30:00,
2013-01-12 22:35:00,27.8,24.4,29.86,NW,309,8.0,14.0,87,0.00,,FEW120,0.00,VWS V14.01,2013-01-13 04:35:00,
2013-01-12 22:36:00,27.8,24.4,29.86,NW,304,8.0,11.0,87,0.00,,OVC070,0.00,VWS V14.01,2013-01-13 04:36:00,
2013-01-12 22:40:00,27.7,24.6,29.86,WNW,302,10.0,12.0,88,0.00,,FEW120,0.00,VWS V14.01,2013-01-13 04:40:00,
2013-01-12 22:41:00,27.7,24.6,29.86,NW,309,12.0,14.0,88,0.00,,OVC070,0.00,VWS V14.01,2013-01-13 04:41:00,
2013-01-12 22:45:00,27.4,24.3,29.85,WNW,283,8.0,16.0,88,0.00,,FEW120,0.00,VWS V14.01,2013-01-13 04:45:00,
2013-01-12 22:46:00,27.4,24.3,29.85,NW,308,8.0,16.0,88,0.00,,OVC070,0.00,VWS V14.01,2013-01-13 04:46:00,
2013-01-12 22:50:00,27.4,24.3,29.85,WNW,292,6.0,10.0,88,0.00,,FEW120,0.00,VWS V14.01,2013-01-13 04:50:00,
2013-01-12 22:51:00,27.4,24.3,29.85,WNW,296,3.0,13.0,88,0.00,,OVC070,0.00,VWS V14.01,2013-01-13 04:51:00,
2013-01-12 22:55:00,27.2,24.1,29.84,NW,321,8.0,14.0,88,0.00,,FEW120,0.00,VWS V14.01,2013-01-13 04:55:00,
2013-01-12 22:56:00,27.2,24.1,29.85,WNW,300,10.0,14.0,88,0.00,,OVC070,0.00,VWS V14.01,2013-01-13 04:56:00,
2013-01-12 23:00:00,27.2,24.1,29.85,WNW,294,4.0,13.0,88,0.00,,OVC070,0.00,VWS V14.01,2013-01-13 05:00:00,
2013-01-12 23:02:00,27.2,24.4,29.85,West,264,8.0,10.0,89,0.00,,OVC065,0.00,VWS V14.01,2013-01-13 05:02:00,
2013-01-12 23:05:00,27.2,24.4,29.85,NW,308,4.0,11.0,89,0.00,,FEW120,0.00,VWS V14.01,2013-01-13 05:05:00,
2013-01-12 23:06:00,27.2,24.4,29.85,NW,313,9.0,11.0,89,0.00,,OVC065,0.00,VWS V14.01,2013-01-13 05:06:00,
2013-01-12 23:08:00,27.3,24.5,29.85,NW,306,1.0,11.0,89,0.00,,OVC065,0.00,VWS V14.01,2013-01-13 05:08:00,
2013-01-12 23:10:00,27.4,24.6,29.85,WNW,296,7.0,10.0,89,0.00,,FEW120,0.00,VWS V14.01,2013-01-13 05:10:00,
2013-01-12 23:13:00,27.4,24.6,29.85,West,265,5.0,11.0,89,0.00,,OVC065,0.00,VWS V14.01,2013-01-13 05:13:00,
2013-01-12 23:15:00,27.4,24.6,29.85,WNW,298,7.0,11.0,89,0.00,,FEW120,0.00,VWS V14.01,2013-01-13 05:15:00,
2013-01-12 23:18:00,27.2,24.4,29.85,NNW,335,2.0,10.0,89,0.00,,OVC065,0.00,VWS V14.01,2013-01-13 05:18:00,
2013-01-12 23:20:00,27.2,24.4,29.85,NW,309,7.0,9.0,89,0.00,,FEW120,0.00,VWS V14.01,2013-01-13 05:20:00,
2013-01-12 23:24:00,27.2,24.4,29.85,NW,314,2.0,8.0,89,0.00,,OVC065,0.00,VWS V14.01,2013-01-13 05:24:00,
2013-01-12 23:25:00,27.2,24.4,29.85,WNW,289,4.0,7.0,89,0.00,,FEW120,0.00,VWS V14.01,2013-01-13 05:25:00,
2013-01-12 23:29:00,27.0,24.2,29.85,WNW,302,3.0,13.0,89,0.00,,OVC065,0.00,VWS V14.01,2013-01-13 05:29:00,
2013-01-12 23:30:00,27.0,24.2,29.86,WNW,302,4.0,13.0,89,0.00,,FEW120,0.00,VWS V14.01,2013-01-13 05:30:00,
2013-01-12 23:34:00,26.9,24.1,29.85,NW,311,9.0,15.0,89,0.00,,OVC060,0.00,VWS V14.01,2013-01-13 05:34:00,
2013-01-12 23:35:00,26.8,23.7,29.85,WNW,296,8.0,15.0,88,0.00,,FEW120,0.00,VWS V14.01,2013-01-13 05:35:00,
2013-01-12 23:39:00,26.7,23.6,29.85,NW,324,10.0,13.0,88,0.00,,OVC060,0.00,VWS V14.01,2013-01-13 05:39:00,
2013-01-12 23:40:00,26.7,23.6,29.85,WNW,288,2.0,13.0,88,0.00,,FEW120,0.00,VWS V14.01,2013-01-13 05:40:00,
2013-01-12 23:44:00,26.7,23.6,29.85,NW,319,4.0,10.0,88,0.00,,OVC060,0.00,VWS V14.01,2013-01-13 05:44:00,
2013-01-12 23:45:00,26.7,23.6,29.86,NW,306,3.0,10.0,88,0.00,,FEW120,0.00,VWS V14.01,2013-01-13 05:45:00,
2013-01-12 23:49:00,26.8,23.7,29.86,NW,321,2.0,9.0,88,0.00,,OVC060,0.00,VWS V14.01,2013-01-13 05:49:00,
2013-01-12 23:50:00,26.8,23.7,29.86,NW,317,11.0,11.0,88,0.00,,FEW120,0.00,VWS V14.01,2013-01-13 05:50:00,
2013-01-12 23:54:00,26.8,23.7,29.86,SW,236,6.0,14.0,88,0.00,,OVC060,0.00,VWS V14.01,2013-01-13 05:54:00,
2013-01-12 23:55:00,26.8,23.5,29.86,NW,307,9.0,14.0,87,0.00,,FEW120,0.00,VWS V14.01,2013-01-13 05:55:00,
2013-01-12 23:59:00,26.9,23.8,29.86,NW,311,6.0,13.0,88,0.00,,OVC060,0.00,VWS V14.01,2013-01-13 05:59:00,